Location: Fort Worth, Tx
(32.7431°N, 97.3695°W)
Time: 02:18:18
(UTC-04:00)

Envisat - Pass Details

Date: 04 June 2023
Orbit: 762 x 764 km, 98.3° (Epoch: 12 October)

Event Time Altitude Azimuth Distance (km) Brightness Sun altitude
Rises 06:11:01 0° 12° (NNE) 3,227 7.1 -13.3°
Reaches altitude 10° 06:13:19 10° 12° (NNE) 2,298 6.2 -12.9°
Maximum altitude 06:18:24 88° 286° (WNW) 766 3.0 -12.1°
Drops below altitude 10° 06:23:26 10° 194° (SSW) 2,285 5.0 -11.2°
Enters shadow 06:24:05 - 194° (SSW) 2,546 5.2 -11.1°
